Hot Springs, VA

11:21 PM EDT on March 22, 2017 (GMT -0400)
Ingalls

Weather History for KHSP - January, 2001

Change the Weather History Date:

Thursday, January 25, 2001

  Actual Average Record
Temperature  
Mean Temperature 19 °F -  
Max Temperature 24 °F 31 °F 55 °F (2017)
Min Temperature 14 °F 17 °F 3 °F (2008)
Degree Days  
Heating Degree Days 46    
Moisture  
Dew Point 13 °F    
Average Humidity 76    
Maximum Humidity 93    
Minimum Humidity 63    
Precipitation  
Precipitation 0.00 in - - ()
Sea Level Pressure  
Sea Level Pressure 29.98 in    
Wind  
Wind Speed 15 mph (NW)    
Max Wind Speed 28 mph    
Max Gust Speed 38 mph    
Visibility 10 miles    
Events      
Averages and records for this station are not official NWS values.
T = Trace of Precipitation, MM = Missing Value Source: NWS Daily Summary

Daily Weather History Graph

Daily Weather History Graph

Search for Another Location

Airport or City:

Trip Planner

Search our weather history database for the weather conditions in past years. The results will help you decide how hot, cold, wet, or windy it might be!

Date:

Astronomy

Jan. 25, 2001 Rise Set
Actual Time 7:28 AM EST 5:34 PM EST
Civil Twilight 7:00 AM EST 6:03 PM EST
Nautical Twilight 6:28 AM EST 6:34 PM EST
Astronomical Twilight 5:57 AM EST 7:06 PM EST
Moon 8:19 AM EST (1/25) 6:41 PM EST (1/25)
Length of Visible Light 11h 02m
Length of Day
10h 06m
New Moon, 1% of the Moon is Illuminated
Jan 25
New Moon
Feb 1
First Quarter
Feb 8
Full
Feb 14
Last Quarter
Feb 23
New

Hourly Weather History & Observations

Time (EST) Temp. Windchill Dew Point Humidity Pressure Visibility Wind Dir Wind Speed Gust Speed Precip Events Conditions
12:19 AM 24.8 °F 13.4 °F 17.6 °F 74% 29.88 in 10.0 mi WNW 12.7 mph 21.9 mph N/A   Overcast
12:39 AM 24.8 °F 11.5 °F 17.6 °F 74% 29.87 in 10.0 mi WNW 17.3 mph 21.9 mph N/A   Overcast
1:01 AM 24.8 °F 14.0 °F 17.6 °F 74% 29.86 in 10.0 mi WNW 11.5 mph 18.4 mph N/A   Overcast
1:19 AM 24.8 °F 16.1 °F 17.6 °F 74% 29.86 in 10.0 mi WNW 8.1 mph - N/A   Overcast
1:39 AM 24.8 °F 13.4 °F 19.4 °F 80% 29.86 in 10.0 mi WNW 12.7 mph 18.4 mph N/A   Overcast
1:59 AM 23.0 °F 13.1 °F 19.4 °F 86% 29.85 in 10.0 mi WNW 9.2 mph 17.3 mph N/A   Overcast
2:21 AM 23.0 °F 11.7 °F 19.4 °F 86% 29.86 in 10.0 mi WNW 11.5 mph 17.3 mph N/A   Overcast
2:39 AM 23.0 °F 11.1 °F 19.4 °F 86% 29.86 in 10.0 mi WNW 12.7 mph - N/A   Overcast
2:59 AM 21.2 °F 8.3 °F 19.4 °F 93% 29.86 in 10.0 mi WNW 13.8 mph 18.4 mph N/A   Overcast
3:19 AM 21.2 °F 7.8 °F 19.4 °F 93% 29.85 in 7.0 mi WNW 15.0 mph 24.2 mph N/A   Overcast
3:39 AM 21.2 °F 7.8 °F 19.4 °F 93% 29.86 in 10.0 mi WNW 15.0 mph 21.9 mph N/A   Overcast
3:59 AM 21.2 °F 5.6 °F 17.6 °F 86% 29.86 in 5.0 mi WNW 20.7 mph 27.6 mph N/A   Overcast
4:19 AM 21.2 °F 6.4 °F 17.6 °F 86% 29.87 in 10.0 mi WNW 18.4 mph 25.3 mph N/A   Mostly Cloudy
4:39 AM 19.4 °F 5.0 °F 14.0 °F 80% 29.88 in 10.0 mi WNW 16.1 mph 29.9 mph N/A   Overcast
4:59 AM 19.4 °F 5.0 °F 12.2 °F 74% 29.89 in 10.0 mi WNW 16.1 mph 26.5 mph N/A   Mostly Cloudy
5:19 AM 19.4 °F 3.2 °F 12.2 °F 74% 29.90 in 10.0 mi WNW 20.7 mph 25.3 mph N/A   Mostly Cloudy
5:39 AM 19.4 °F 4.5 °F 14.0 °F 80% 29.90 in 10.0 mi WNW 17.3 mph 25.3 mph N/A   Overcast
5:59 AM 17.6 °F 3.7 °F 12.2 °F 79% 29.91 in 10.0 mi WNW 13.8 mph 23.0 mph N/A   Overcast
6:19 AM 17.6 °F 1.7 °F 14.0 °F 86% 29.92 in 2.0 mi NNW 18.4 mph 28.8 mph N/A   Overcast
6:39 AM 15.8 °F 0.9 °F 10.4 °F 79% 29.92 in 10.0 mi NW 15.0 mph 26.5 mph N/A   Mostly Cloudy
6:59 AM 15.8 °F -1.5 °F 8.6 °F 73% 29.94 in 10.0 mi NNW 20.7 mph 29.9 mph N/A   Scattered Clouds
7:19 AM 15.8 °F -1.1 °F 8.6 °F 73% 29.93 in 10.0 mi NW 19.6 mph 28.8 mph N/A   Scattered Clouds
7:39 AM 15.8 °F 1.4 °F 10.4 °F 79% 29.93 in 10.0 mi NW 13.8 mph 27.6 mph N/A   Clear
7:59 AM 15.8 °F 0.9 °F 10.4 °F 79% 29.96 in 10.0 mi NW 15.0 mph 20.7 mph N/A   Mostly Cloudy
8:19 AM 15.8 °F 1.4 °F 12.2 °F 86% 29.97 in 10.0 mi NW 13.8 mph 19.6 mph N/A   Mostly Cloudy
8:39 AM 17.6 °F 3.7 °F 12.2 °F 79% 29.98 in 10.0 mi NW 13.8 mph - N/A   Mostly Cloudy
8:59 AM 17.6 °F 2.7 °F 12.2 °F 79% 29.98 in 10.0 mi NW 16.1 mph 24.2 mph N/A   Overcast
9:19 AM 17.6 °F 3.2 °F 12.2 °F 79% 29.99 in 10.0 mi NW 15.0 mph 21.9 mph N/A   Mostly Cloudy
9:39 AM 19.4 °F 5.0 °F 14.0 °F 80% 30.00 in 10.0 mi NW 16.1 mph 23.0 mph N/A   Scattered Clouds
9:59 AM 19.4 °F 7.2 °F 12.2 °F 74% 30.00 in 10.0 mi NNW 11.5 mph 25.3 mph N/A   Mostly Cloudy
10:19 AM 19.4 °F 7.2 °F 14.0 °F 80% 30.02 in 10.0 mi NW 11.5 mph 19.6 mph N/A   Overcast
10:39 AM 19.4 °F 7.9 °F 12.2 °F 74% 30.02 in 10.0 mi NNW 10.4 mph 19.6 mph N/A   Overcast
10:59 AM 19.4 °F 7.2 °F 14.0 °F 80% 30.03 in 10.0 mi NNW 11.5 mph 19.6 mph N/A   Overcast
11:19 AM 21.2 °F 6.8 °F 12.2 °F 68% 30.03 in 10.0 mi NW 17.3 mph 24.2 mph N/A   Overcast
11:39 AM 21.2 °F 6.4 °F 12.2 °F 68% 30.02 in 10.0 mi NW 18.4 mph 36.8 mph N/A   Overcast
11:59 AM 21.2 °F 9.5 °F 12.2 °F 68% 30.02 in 10.0 mi NNW 11.5 mph 29.9 mph N/A   Overcast
12:19 PM 21.2 °F 9.5 °F 12.2 °F 68% 30.02 in 10.0 mi NW 11.5 mph 24.2 mph N/A   Overcast
12:39 PM 19.4 °F 3.6 °F 10.4 °F 68% 30.01 in 10.0 mi NW 19.6 mph 28.8 mph N/A   Overcast
1:01 PM 19.4 °F 3.6 °F 8.6 °F 63% 30.02 in 10.0 mi WNW 19.6 mph 35.7 mph N/A   Overcast
1:19 PM 19.4 °F 6.0 °F 10.4 °F 68% 30.02 in 10.0 mi WNW 13.8 mph 23.0 mph N/A   Overcast
1:39 PM 19.4 °F 5.5 °F 12.2 °F 74% 30.02 in 10.0 mi NW 15.0 mph 24.2 mph N/A   Mostly Cloudy
1:59 PM 19.4 °F 4.1 °F 10.4 °F 68% 30.03 in 10.0 mi NW 18.4 mph 27.6 mph N/A   Overcast
2:19 PM 19.4 °F 4.5 °F 10.4 °F 68% 30.04 in 10.0 mi WNW 17.3 mph 32.2 mph N/A   Mostly Cloudy
2:39 PM 19.4 °F 3.6 °F 8.6 °F 63% 30.04 in 10.0 mi NW 19.6 mph 31.1 mph N/A   Scattered Clouds
2:59 PM 21.2 °F 7.8 °F 10.4 °F 63% 30.05 in 10.0 mi NW 15.0 mph 29.9 mph N/A   Mostly Cloudy
3:19 PM 21.2 °F 6.4 °F 10.4 °F 63% 30.06 in 10.0 mi NW 18.4 mph 28.8 mph N/A   Mostly Cloudy
3:39 PM 19.4 °F 1.8 °F 8.6 °F 63% 30.06 in 10.0 mi WNW 25.3 mph 34.5 mph N/A   Scattered Clouds
3:59 PM 19.4 °F 1.1 °F 8.6 °F 63% 30.07 in 10.0 mi NW 27.6 mph 33.4 mph N/A   Clear
4:19 PM 17.6 °F -0.6 °F 8.6 °F 68% 30.06 in 10.0 mi NW 25.3 mph 38.0 mph N/A   Clear
4:39 PM 17.6 °F 0.9 °F 8.6 °F 68% 30.07 in 10.0 mi NW 20.7 mph 36.8 mph N/A   Scattered Clouds
4:59 PM 17.6 °F 2.2 °F 8.6 °F 68% 30.08 in 10.0 mi NW 17.3 mph 29.9 mph N/A   Clear
5:19 PM 15.8 °F -1.5 °F 8.6 °F 73% 30.09 in 10.0 mi NW 20.7 mph 31.1 mph N/A   Scattered Clouds
5:39 PM 15.8 °F -1.5 °F 8.6 °F 73% 30.11 in 10.0 mi NNW 20.7 mph 31.1 mph N/A   Scattered Clouds
5:59 PM 15.8 °F -2.7 °F 8.6 °F 73% 30.12 in 10.0 mi WNW 24.2 mph 35.7 mph N/A   Clear
6:19 PM 14.0 °F -4.3 °F 8.6 °F 79% 30.12 in 10.0 mi NW 21.9 mph 33.4 mph N/A   Clear
6:39 PM 14.0 °F -2.0 °F 8.6 °F 79% 30.12 in 10.0 mi NW 16.1 mph 25.3 mph N/A   Clear
6:59 PM 14.0 °F -4.3 °F 8.6 °F 79% 30.14 in 10.0 mi WNW 21.9 mph - N/A   Clear
7:19 PM 14.0 °F -3.0 °F 8.6 °F 79% 30.13 in 10.0 mi NW 18.4 mph 29.9 mph N/A   Clear
7:39 PM 12.2 °F -5.8 °F 8.6 °F 85% 30.13 in 10.0 mi NW 19.6 mph 27.6 mph N/A   Clear
7:59 PM 12.2 °F -5.8 °F 10.4 °F 92% 30.14 in 10.0 mi NW 19.6 mph 27.6 mph N/A   Clear
8:19 PM 12.2 °F -8.2 °F 8.6 °F 85% 30.15 in 10.0 mi NW 26.5 mph - N/A   Clear
8:39 PM 12.2 °F -4.8 °F 10.4 °F 92% 30.15 in 10.0 mi NW 17.3 mph - N/A   Clear
8:59 PM 12.2 °F -4.8 °F 8.6 °F 85% 30.16 in 10.0 mi NW 17.3 mph 20.7 mph N/A   Clear
9:19 PM 12.2 °F -6.7 °F 10.4 °F 92% 30.16 in 10.0 mi NW 21.9 mph 27.6 mph N/A   Clear
9:39 PM 12.2 °F -5.8 °F 8.6 °F 85% 30.15 in 10.0 mi NW 19.6 mph 32.2 mph N/A   Clear
9:59 PM 12.2 °F -3.7 °F 8.6 °F 85% 30.15 in 10.0 mi NW 15.0 mph 28.8 mph N/A   Clear
10:19 PM 12.2 °F -3.7 °F 8.6 °F 85% 30.17 in 10.0 mi WNW 15.0 mph 23.0 mph N/A   Clear
10:39 PM 12.2 °F -4.8 °F 10.4 °F 92% 30.18 in 10.0 mi NW 17.3 mph - N/A   Clear
10:59 PM 12.2 °F -6.3 °F 8.6 °F 85% 30.16 in 10.0 mi NW 20.7 mph - N/A   Clear
11:19 PM 12.2 °F -4.8 °F 8.6 °F 85% 30.16 in 10.0 mi NW 17.3 mph 25.3 mph N/A   Clear
11:39 PM 12.2 °F -2.5 °F 8.6 °F 85% 30.17 in 10.0 mi WNW 12.7 mph 17.3 mph N/A   Clear
11:59 PM 12.2 °F -5.8 °F 8.6 °F 85% 30.15 in 10.0 mi NW 19.6 mph - N/A   Clear